Regional Weather Roundup
Issued by NWS

Home | Current Version | Previous Version | Graphics & Text | Print | Product List | Glossary On
Versions: 1 2 3 4 5 6 7 8 9 10 11 12 13 14 15 16 17 18 19 20 21 22 23 24 25 26 27 28 29 30 31 32 33 34 35 36 37 38 39 40 41 42 43 44 45 46 47 48 49 50
000
ASUS43 KLMK 290710
RWRKY
KENTUCKY REGIONAL WEATHER ROUNDUP
NATIONAL WEATHER SERVICE LOUISVILLE KY
200 AM EST MON DEC 29 2014

NOTE "FAIR" INDICATES FEW OR NO CLOUDS BELOW 12,000 FEET
WITH NO SIGNIFICANT WEATHER AND/OR OBSTRUCTIONS TO VISIBILITY.

KYZ001>023-026-027-061>063-070>075-290800-
WESTERN AND SOUTH CENTRAL KENTUCKY

CITY           SKY/WX    TMP DP  RH WIND       PRES   REMARKS
PADUCAH        CLOUDY    33  27  78 N8        30.21S WCI  26
HENDERSON      CLOUDY    32  25  74 NE6       30.22S WCI  26
OWENSBORO      CLOUDY    34  30  85 N3        30.22F
HOPKINSVILLE   CLOUDY    34  32  93 N8        30.18F WCI  27
BOWLING GREEN  CLOUDY    37  33  85 N6        30.18S FOG     WCI  32
GLASGOW        CLOUDY    35  34  98 NE5       30.17S WCI  31
$$

KYZ024-025-028>034-038-045-046-053-290800-
NORTH CENTRAL KENTUCKY

CITY           SKY/WX    TMP DP  RH WIND       PRES   REMARKS
LOUISVILLE/SDF CLOUDY    35  29  78 N6        30.21S WCI  30
LOUISVILLE/LOU CLOUDY    34  29  82 N6        30.22R WCI  29
FORT KNOX      CLOUDY    33  29  85 N5        30.18S WCI  29
$$

KYZ035>037-039>044-047>052-055>060-089>105-290800-
NORTHEAST KENTUCKY

CITY           SKY/WX    TMP DP  RH WIND       PRES   REMARKS
LEXINGTON      CLOUDY    32  30  92 N5        30.17F WCI  27
COVINGTON      MOCLDY    30  24  78 N7        30.20R WCI  23
FRANKFORT      CLOUDY    32  29  88 NE3       30.17F
$$

KYZ054-064>069-076>088-106>120-290800-
SOUTHEAST KENTUCKY

CITY           SKY/WX    TMP DP  RH WIND       PRES   REMARKS
JACKSON        FOG       36  35  96 N3        30.14R VSB 1/2
LONDON         LGT RAIN  38  35  89 N7        30.15R WCI  33
SOMERSET       RAIN      36  36 100 NE5       30.15F WCI  32
MIDDLESBORO    CLOUDY    43  43 100 CALM      30.11R
MONTICELLO     LGT SNOW  38  38 100 NE6       30.17F FOG     WCI  33
$$




USA.gov is the U.S. government's official web portal to all federal, state and local government web resources and services.